Regional Weather Roundup
Issued by NWS

Home | Current Version | Previous Version | Text Only | Print | Product List | Glossary Off
Versions: 1 2 3 4 5 6 7 8 9 10 11 12 13 14 15 16 17 18 19 20 21 22 23 24 25 26 27 28 29 30 31 32 33 34 35 36 37 38 39 40 41 42 43 44 45 46 47 48 49 50

773
ASUS43 KMKX 260800
RWRWI

WISCONSIN REGIONAL WEATHER ROUNDUP
NATIONAL WEATHER SERVICE MILWAUKEE/SULLIVAN WI
200 AM CST SUN FEB 26 2017

NOTE: "FAIR" INDICATES FEW OR NO CLOUDS BELOW 12,000 FEET WITH NO
SIGNIFICANT WEATHER AND/OR OBSTRUCTIONS TO VISIBILITY.

WIZ001-002-006>008-014>016-023>028-260900-
NORTHWEST WISCONSIN

CITY           SKY/WX    TMP DP  RH WIND       PRES   REMARKS
SUPERIOR ARPT  LGT SNOW  27  26  94 SW7       29.71S WCI  20
ASHLAND        CLOUDY    27  21  78 S12G22    29.72F HAZE    WCI  17
HAYWARD        LGT SNOW  24  16  71 SW14      29.73F WCI  12
SIREN          CLOUDY    25  17  69 SW9       29.74F WCI  16
CUMBERLAND     CLOUDY    23  14  68 S13       29.75F WCI  11
RICE LAKE      CLOUDY    23  15  70 S9        29.79F WCI  13
CHETEK         CLOUDY    21  14  74 S5        29.79F WCI  15
LADYSMITH      CLOUDY    20  14  76 S10       29.80F WCI   9
EAU CLAIRE     NOT AVBL
MENOMONIE      CLOUDY    22  16  77 S8        29.82F WCI  12
NEW RICHMOND   CLOUDY    23  15  70 S13       29.77F WCI  12
OSCEOLA        CLOUDY    26  17  70 S9        29.79F WCI  16
$$

WIZ003>005-009-010-017-018-260900-
NORTH CENTRAL WISCONSIN

CITY           SKY/WX    TMP DP  RH WIND       PRES   REMARKS
MANITOWISH WTR CLOUDY    19  16  90 SW9       29.73F WCI   8
ARBOR VITAE    CLOUDY    19  14  80 S9          N/A  WCI   8
WOODRUFF       CLOUDY    19  14  80 S9          N/A  WCI   8
RHINELANDER    CLOUDY    18  12  77 SW10      29.78S WCI   6
EAGLE RIVER    CLOUDY    17  11  77 SW7       29.75F WCI   7
LAND O LAKES   CLOUDY    17  13  84 SW3       29.76S
PHILLIPS       PTCLDY    19  12  76 SW8G16    29.76F WCI   8
TOMAHAWK       CLOUDY    17  11  77 CALM      29.80S
MEDFORD        CLOUDY    18  11  75 SW9       29.81S WCI   7
MERRILL        NOT AVBL
$$

WIZ029-030-035-036-043>047-260900-
CENTRAL WISCONSIN

CITY           SKY/WX    TMP DP  RH WIND       PRES   REMARKS
WAUSAU         LGT SNOW  18  13  80 S9        29.84S WCI   7
MOSINEE        FLURRIES  19  14  79 SW10      29.87S WCI   8
MARSHFIELD     CLOUDY    20  12  71 SW10      29.84F WCI   9
STEVENS POINT  FLURRIES  16  11  80 SW7       29.90R WCI   6
WAUPACA        CLOUDY    18  11  77 SW3       29.92S
WAUTOMA        FLURRIES  18  13  80 SW6       29.94S WCI  10
WISC RAPIDS    CLOUDY    21  13  71 SW10      29.90F WCI  10
CAMP DOUGLAS   NOT AVBL
$$

WIZ011>013-019>022-031-037>040-048>050-260900-
NORTHEAST WISCONSIN

CITY           SKY/WX    TMP DP  RH WIND       PRES   REMARKS
ANTIGO         CLOUDY    16  11  81 SW9       29.82S WCI   5
SHAWANO        CLOUDY    18  11  74 SW3       29.90S
OCONTO         MOCLDY    18  10  70 S5        29.90S WCI  11
STURGEON BAY   CLEAR     19  12  74 SW9       29.90F WCI   8
GREEN BAY      MOCLDY    19  13  77 S5        29.92S WCI  12
MANITOWOC      NOT AVBL
APPLETON       PTCLDY    18  10  73 S8        29.90S WCI   7
CLINTONVILLE   CLOUDY    18  10  73 S7        29.90S WCI   8
OSHKOSH        PTCLDY    18  11  74 SW10      29.93S WCI   6
$$

WIZ032>034-041-042-053>061-260900-
SOUTHWEST WISCONSIN

CITY           SKY/WX    TMP DP  RH WIND       PRES   REMARKS
LA CROSSE      CLOUDY    27  18  69 S10       29.88F WCI  17
SPARTA         CLOUDY    23  16  75 E3        29.90F
VIROQUA        CLOUDY    22  17  78 S7        29.88F WCI  14
BOSCOBEL       CLOUDY    25  17  72 S3        29.94F
PRAIRIE DU CHI CLOUDY    27  17  65 CALM      29.94F
PLATTEVILLE    CLOUDY    24  20  85 S8        29.95F WCI  15
$$

WIZ056-057-062-063-064-067-068-260900-
SOUTH CENTRAL WISCONSIN

CITY           SKY/WX    TMP DP  RH WIND       PRES   REMARKS
REEDSBURG      CLOUDY    21  15  78 SW5       29.94S WCI  14
BARABOO/DELLS  CLOUDY    21  14  75 SW9       29.93F WCI  11
LONE ROCK      NOT AVBL
MINERAL POINT  CLOUDY    23  21  93 CALM      29.94F
MADISON        CLOUDY    22  15  75 SW5       29.96F WCI  16
MIDDLETON      CLOUDY    23  18  81 SW3       29.97F
WATERTOWN      MOCLDY    19  15  84 SW6       29.98S WCI  11
MONROE         CLOUDY    23  19  86 S10       29.96F WCI  12
JANESVILLE     CLOUDY    25  19  80 SW5       30.00S WCI  19
$$

WIZ051-052-058>065-066-070>072-260900-
SOUTHEAST WISCONSIN

CITY           SKY/WX    TMP DP  RH WIND       PRES   REMARKS
MILWAUKEE      PTCLDY    22  13  68 SW9       29.99S WCI  12
WAUKESHA       CLOUDY    18  12  79 SW6       29.99S WCI   9
MILWAUKEE/TIMM PTCLDY    19  12  73 SW6       29.99S WCI  11
RACINE         MOCLDY    22  13  68 W8        30.02S WCI  12
KENOSHA        MOCLDY    21  14  74 SW6       30.00F WCI  13
FOND DU LAC    PTCLDY    19  11  70 SW9       29.95S WCI   8
SHEBOYGAN      PTCLDY    18  11  74 SW8       29.94F WCI   8
WEST BEND      PTCLDY    19  16  86 CALM      29.95F
JUNEAU         MOCLDY    18  14  83 SW6       29.97S WCI  10
$$

LSZ147-162-260900-
LAKE SUPERIOR

STATION/POSITION TIME  TEMP    WIND        PRES    WAVE
                       AIR SEA DIR/SP/G            HT/PER
                 (UTC) (F)     (DEG/KT/KT) (MB)    (FT/S)
DEVILS ISLAND    0700   27     220/ 14/ 17 1007.2F
PORT WING        0730   26     200/  3/  5 1006.4F
SAXON HARBOR     0740   27     200/ 10/ 14 1006.8S
$$

LMZ867-665-643>646-260900-
LAKE MICHIGAN

STATION/POSITION TIME  TEMP    WIND        PRES    WAVE
                       AIR SEA DIR/SP/G            HT/PER
                 (UTC) (F)     (DEG/KT/KT) (MB)    (FT/S)
NORTHPORT PIER   0740   22      CALM  /  1 1011.9F
SISTER BAY       0735   22        CALM       N/A
ALGOMA LAKESHORE 0556             CALM       N/A
KEWAUNEE LAKESHO 0730   20     320/  9/ 18 1012.8F
SHEBOYGAN LAKESH 0700   22     250/  8/ 10 1015.4F
PORT WASHINGTON  0730   21     250/  5/  7 1015.9F
MILWAUKEE LAKESH 0730   24     230/ 11/ 12   N/A
KENOSHA   LAKESH 0700   24     260/  5/  8 1016.6
$$

TC  - TEMPERATURE IN CELSIUS
VSB - VISIBILITY IN STATUTE MILES
WCI - WIND CHILL INDEX
HX  - HEAT INDEX





USA.gov is the U.S. government's official web portal to all federal, state and local government web resources and services.